Погода в Троицком

Россия / Калужская область     54°52′19″N   37°06′48″E
темп.,
°C
ветер,
м/с
пор.,
м/с
влажн.,
%
обл.,
%
осадки,
мм/ч
давл.,
гПа
погр.,
м
25 июля, вс
вс2500:00+15ссз115998 0.0 101817
03:00+12ссз116859 0.0 101910
06:00+14з006717 0.0 102020
09:00+20в01475 0.0 1020569
12:00+23ю123699 0.0 10202580
15:00+22ююз114098 0.0 10211407
18:00+22юз124311 0.0 1021756
21:00+16ююз22655 0.0 102211
26 июля, пн
пн2600:00+13зюз12694 0.0 102310
03:00+13ююз116941 0.0 102310
06:00+16ю1161100 0.0 102319
09:00+18ю2360100 0.0 1024127
12:00+20ю2563100 0.0 1023190
15:00+24ююз2444100 0.0 10221210
18:00+24зюз565277 0.0 1022820
21:00+16юз238625 0.0 102353
27 июля, вт
вт2700:00+15зюз229133 0.0 102334
03:00+15зсз119186 0.0 102311
06:00+17з11864 0.0 102314
09:00+23зюз11574 0.0 1022524
12:00+28ссз024018 0.0 10212096
15:00+22ююз356458 0.3 102098
18:00+21ю587359 0.4 1020251
21:00+16зюз359160 1.1 102077
28 июля, ср
ср2800:00+17ю239187 0.1 102060
03:00+16ююз23920 0.8 101946
06:00+16ю2288100 0.4 101850
09:00+21ююз2372100 0.4 1017321
12:00+23зюз3561100 0.1 1015877
15:00+17вюв3693100 1.8 1014160
18:00+16юв41097100 3.2 1011543
21:00+17ю3109772 4.7 1009418
29 июля, чт
чт2900:00+17ююз2499100 0.3 1008136
03:00+16з379995 0.3 1007250
06:00+16сз4798100 0.3 1007579
09:00+17сз3795100 0.4 1008614
12:00+20сз358286 0.2 1009791
15:00+23ссз3568100 1.0 10101128
18:00+23сз356341 0.1 1010661
21:00+18з12835 0.1 101011